This is the latest recevied weather packets stored in our database for station/object ZR6G-15. If no packets are shown the sender has not sent any weather packets the latest 10 day(s).
| Time | Temp. | Humidity | Pressure | Rain* | Wind** | Luminosity | Snow |
|---|---|---|---|---|---|---|---|
| 1778138676 | 10° C | 34% | 1014.7 hPa | - | - | - | - |
| 1778138071 | 8.89° C | 33% | 1014.5 hPa | - | - | - | - |
| 1778137466 | 8.89° C | 37% | 1014.7 hPa | - | - | - | - |
| 1778136862 | 10° C | 35% | 1014.6 hPa | - | - | - | - |
| 1778136257 | 8.89° C | 37% | 1014.7 hPa | - | - | - | - |
| 1778135653 | 8.89° C | 35% | 1014.6 hPa | - | - | - | - |
| 1778135048 | 7.78° C | 37% | 1014.7 hPa | - | - | - | - |
| 1778133839 | 8.89° C | 38% | 1014.8 hPa | - | - | - | - |
| 1778133235 | 7.78° C | 45% | 1014.8 hPa | - | - | - | - |
| 1778132630 | 6.67° C | 39% | 1015.4 hPa | - | - | - | - |
| 1778132025 | 5.56° C | 41% | 1015.3 hPa | - | - | - | - |
| 1778131421 | 5.56° C | 40% | 1015.4 hPa | - | - | - | - |
| 1778130816 | 5.56° C | 40% | 1015.4 hPa | - | - | - | - |
| 1778130211 | 5.56° C | 41% | 1015.6 hPa | - | - | - | - |
| 1778129607 | 5.56° C | 41% | 1015.5 hPa | - | - | - | - |
| 1778129002 | 5.56° C | 41% | 1015.4 hPa | - | - | - | - |
| 1778128397 | 5.56° C | 40% | 1015.5 hPa | - | - | - | - |
| 1778127792 | 5.56° C | 40% | 1015.2 hPa | - | - | - | - |
| 1778127188 | 5.56° C | 39% | 1015.2 hPa | - | - | - | - |
| 1778126584 | 5.56° C | 40% | 1015.1 hPa | - | - | - | - |
| 1778125979 | 5.56° C | 40% | 1014.9 hPa | - | - | - | - |
| 1778125374 | 5.56° C | 40% | 1014.8 hPa | - | - | - | - |
| 1778124769 | 5.56° C | 40% | 1014.7 hPa | - | - | - | - |
| 1778124165 | 5.56° C | 39% | 1014.6 hPa | - | - | - | - |
| 1778123560 | 5.56° C | 39% | 1014.7 hPa | - | - | - | - |
* Rain since midnight (hover to see other rain measurements)
** Current wind speed in m/s (hover to see current wind gust speed)